Location: Ca�n Batista
(41.4099°N, 1.7752°E)
Time: 13:36:41
(UTC+00:00)

Meteor 1-20 Rocket - Pass Details

Date: 03 March 2021
Orbit: 820 x 891 km, 81.2° (Epoch: 21 April)

Event Time Altitude Azimuth Distance (km) Brightness Sun altitude
Rises 18:05:34 0° 181° (S) 3,337 7.4 -4.5°
Reaches altitude 10° 18:07:57 10° 180° (S) 2,407 6.6 -4.9°
Maximum altitude 18:13:22 72° 96° (E) 867 4.1 -5.9°
Drops below altitude 10° 18:18:50 10° 14° (NNE) 2,436 6.4 -6.9°
Sets 18:21:15 0° 12° (NNE) 3,381 7.2 -7.4°
